Washington, VA

11:18 AM EST on December 12, 2019 (GMT -0500)
Ronald Reagan Washington National

Weather History for KDCA - October, 2019

Change the Weather History Date:

Saturday, October 5, 2019

  Actual Average Record
Temperature  
Mean Temperature 58 °F 63 °F  
Max Temperature 67 °F 72 °F 96 °F (1941)
Min Temperature 49 °F 55 °F 37 °F (1935)
Degree Days  
Heating Degree Days 7 4  
Month to date heating degree days 7 17  
Since 1 July heating degree days 7 41  
Cooling Degree Days 0 2  
Month to date cooling degree days 49 12  
Year to date cooling degree days 2044 1525  
Growing Degree Days 7 (Base 50)    
Moisture  
Dew Point 44 °F    
Average Humidity 60    
Maximum Humidity 71    
Minimum Humidity 48    
Precipitation  
Precipitation 0.00 in 0.11 in 2.53 in (1932)
Month to date precipitation 0.00 0.54  
Year to date precipitation 31.03 30.66  
Snow  
Snow 0.00 in 0.00 in T in (1892)
Month to date snowfall 0.0 0.0  
Since 1 July snowfall 0.0 0.0  
Snow Depth 0.00 in    
Sea Level Pressure  
Sea Level Pressure 30.37 in    
Wind  
Wind Speed 10 mph (ENE)    
Max Wind Speed 18 mph    
Max Gust Speed 23 mph    
Visibility 10 miles    
Events      
T = Trace of Precipitation, MM = Missing Value Source: NWS Daily Summary

Daily Weather History Graph

Daily Weather History Graph

Search for Another Location

Airport or City:

Astronomy

Oct. 05, 2019 Rise Set
Actual Time 7:07 AM EDT 6:44 PM EDT
Civil Twilight 6:41 AM EDT 7:11 PM EDT
Nautical Twilight 6:10 AM EDT 7:42 PM EDT
Astronomical Twilight 5:39 AM EDT 8:13 PM EDT
Moon 2:28 PM EDT (10/5) No Moon Set
Length of Visible Light 12h 30m
Length of Day
11h 37m
Waxing Crescent, 50% of the Moon is Illuminated
Oct 5
Waxing Crescent
Oct 5
First Quarter
Oct 13
Full
Oct 21
Last Quarter
Oct 27
New

Hourly Weather History & Observations

Time (EDT) Temp. Dew Point Humidity Pressure Visibility Wind Dir Wind Speed Gust Speed Precip Events Conditions
12:52 AM 54.0 °F 41.0 °F 62% 30.35 in 10.0 mi NNE 15.0 mph - N/A   Scattered Clouds
1:52 AM 54.0 °F 39.9 °F 59% 30.36 in 10.0 mi NNE 10.4 mph - N/A   Partly Cloudy
2:52 AM 53.1 °F 39.9 °F 61% 30.37 in 10.0 mi NNE 15.0 mph - N/A   Mostly Cloudy
3:52 AM 51.1 °F 39.9 °F 66% 30.38 in 10.0 mi NNE 10.4 mph - N/A   Mostly Cloudy
4:52 AM 51.1 °F 39.0 °F 63% 30.38 in 10.0 mi NNE 10.4 mph - N/A   Mostly Cloudy
5:52 AM 50.0 °F 39.0 °F 66% 30.38 in 10.0 mi North 11.5 mph - N/A   Overcast
6:52 AM 50.0 °F 39.9 °F 68% 30.39 in 10.0 mi NNE 11.5 mph - N/A   Mostly Cloudy
7:52 AM 48.9 °F 39.9 °F 71% 30.42 in 10.0 mi NNE 10.4 mph - N/A   Scattered Clouds
8:52 AM 51.1 °F 39.9 °F 66% 30.43 in 10.0 mi NE 9.2 mph - N/A   Mostly Cloudy
9:52 AM 55.0 °F 42.1 °F 62% 30.44 in 10.0 mi NNE 9.2 mph - N/A   Scattered Clouds
10:52 AM 59.0 °F 44.1 °F 58% 30.43 in 10.0 mi ENE 8.1 mph - N/A   Mostly Cloudy
11:52 AM 62.1 °F 45.0 °F 53% 30.42 in 10.0 mi ENE 9.2 mph - N/A   Mostly Cloudy
12:52 PM 62.1 °F 46.0 °F 56% 30.41 in 10.0 mi ENE 8.1 mph - N/A   Mostly Cloudy
1:52 PM 64.9 °F 46.0 °F 50% 30.38 in 10.0 mi SE 8.1 mph - N/A   Mostly Cloudy
2:52 PM 64.9 °F 46.0 °F 50% 30.36 in 10.0 mi ENE 6.9 mph - N/A   Mostly Cloudy
3:52 PM 66.0 °F 46.9 °F 50% 30.34 in 10.0 mi ESE 8.1 mph - N/A   Mostly Cloudy
4:52 PM 66.0 °F 46.0 °F 48% 30.33 in 10.0 mi ESE 11.5 mph - N/A   Mostly Cloudy
5:52 PM 64.9 °F 46.9 °F 52% 30.33 in 10.0 mi ESE 12.7 mph - N/A   Mostly Cloudy
6:52 PM 64.0 °F 46.9 °F 54% 30.32 in 10.0 mi ESE 10.4 mph - N/A   Mostly Cloudy
7:52 PM 64.0 °F 46.0 °F 52% 30.32 in 10.0 mi SE 10.4 mph - N/A   Overcast
8:52 PM 63.0 °F 46.9 °F 56% 30.32 in 10.0 mi ESE 13.8 mph - N/A   Overcast
9:52 PM 62.1 °F 48.0 °F 60% 30.34 in 10.0 mi SE 12.7 mph - N/A   Overcast
10:52 PM 62.1 °F 50.0 °F 65% 30.33 in 10.0 mi SE 5.8 mph - N/A   Overcast
11:52 PM 62.1 °F 51.1 °F 67% 30.32 in 10.0 mi SSE 6.9 mph - N/A   Overcast